Location: Songkhla
(7.2000°N, 100.6000°E)
Time: 18:00:44
(UTC+07:00)

ISS - All Passes

Search period start: 29 September 2022 00:00
Search period end: 09 October 2022 00:00
Orbit: 414 x 417 km, 51.6° (Epoch: 29 September)

Date Brightness Start Highest point End Pass type
(mag) Time Alt. Az. Time Alt. Az. Time Alt. Az.
29 Sep - 11:11:37 10° SE 11:12:18 10° SE 11:12:58 10° ESE daylight
29 Sep - 12:46:02 10° WSW 12:48:47 24° NW 12:51:33 10° N daylight
29 Sep - 22:41:51 10° N 22:44:45 27° NE 22:47:38 10° ESE night (unlit)
30 Sep - 11:56:48 10° SW 12:00:04 60° NW 12:03:21 10° NNE daylight
30 Sep - 21:54:28 10° NNE 21:55:58 12° NE 21:57:29 10° ENE night (unlit)
30 Sep - 23:29:56 10° WNW 23:32:32 21° SW 23:35:09 10° S night (unlit)
01 Oct - 11:08:08 10° SSW 11:11:21 49° SE 11:14:34 10° NE daylight
01 Oct - 22:40:33 10° NW 22:43:48 52° SW 22:47:04 10° SSE night (unlit)
02 Oct - 10:20:05 10° S 10:22:37 20° SE 10:25:09 10° ENE daylight
02 Oct - 11:57:33 10° W 11:59:10 13° NW 12:00:47 10° NNW daylight
02 Oct - 21:51:46 10° NNW 21:55:03 57° NE 21:58:20 10° SE night (unlit)
03 Oct - 11:07:25 10° WSW 11:10:20 28° NW 11:13:15 10° N daylight
03 Oct - 21:03:31 10° N 21:06:14 23° NE 21:08:58 10° ESE night (unlit)
03 Oct - 22:41:42 10° WSW 22:42:43 11° SW 22:43:44 10° SW night (unlit)
04 Oct - 10:18:12 10° SW 10:21:31 74° NW 10:24:49 10° NNE daylight
04 Oct - 20:16:33 10° NE 20:17:21 11° NE 20:18:09 10° ENE night (unlit)
04 Oct - 21:51:08 10° WNW 21:53:55 25° SW 21:56:43 10° S night (unlit)
05 Oct - 09:29:33 10° SSW 09:32:41 40° SE 09:35:50 10° NE daylight
05 Oct - 21:01:47 10° NW 21:05:05 64° SW 21:08:23 10° SSE night (unlit)
06 Oct - 08:41:34 10° SSE 08:43:50 17° SE 08:46:06 10° E daylight
06 Oct - 10:18:21 10° W 10:20:21 15° NW 10:22:22 10° NNW daylight
06 Oct - 20:12:59 10° NNW 20:16:12 46° NE 20:19:26 10° SE night (unlit)
07 Oct - 09:28:22 10° WSW 09:31:25 34° NW 09:34:28 10° NNE daylight
07 Oct - 19:24:46 10° N 19:27:16 20° NE 19:29:47 10° ESE visible
07 Oct - 21:02:06 10° W 21:03:46 13° SW 21:05:26 10° SSW night (unlit)
08 Oct - 08:39:11 10° SW 08:42:30 89° ESE 08:45:49 10° NE daylight
08 Oct - 20:11:53 10° WNW 20:14:51 30° SW 20:17:49 10° S visible
